Location: Cambroso
(45.2833°N, 12.0850°E)
Time: 16:18:02
(UTC+00:00)

YAOGAN 1 - Pass Details

Date: 21 January 2021
Orbit: 618 x 620 km, 97.9° (Epoch: 27 February)

Event Time Altitude Azimuth Distance (km) Brightness Sun altitude
Rises 17:09:18 0° 142° (SE) 2,886 5.8 -11.5°
Reaches altitude 10° 17:11:37 10° 133° (SE) 1,985 4.9 -11.9°
Maximum altitude 17:15:31 34° 69° (ENE) 1,024 3.1 -12.6°
Drops below altitude 10° 17:19:27 10° 4° (N) 1,998 5.0 -13.3°
Sets 17:21:47 0° 356° (N) 2,909 5.9 -13.7°
